DLH402 EDDF-KEWR

Flight info

Callsign DLH402
Flight time N/A
Altitude 38000
Route OBOKA3W OBOKA Z29 TORNU DCT VICOT DCT GALSO Q63 ERING L179 UGBET Q60 OKSAW DCT BIBPE DCT TIGWE DCT FELCA DCT FADZU DCT NICXI DCT OFSOX DCT SLANY DCT DIMUS DCT MALOT/M084F390 DCT 54N020W 54N030W 54N040W 53N050W DCT RIKAL/N0487F400 N576B ANATI DCT IMORI DCT HANAA FLOSI4
Aircraft A359/H-SDE2E3GHIJ3J4J5LM1ORWXY/LB1D1

Departure

Time N/A
Airport Frankfurt Main Airport (EDDF)

Arrival

Time 2026-05-06 00:35
Airport Newark Liberty International Airport (KEWR)
Time Latitude Longitude Altitude Speed Heading
2026-05-05 21:43 52.69190 -51.25351 39771 ft 494 kts 248°
2026-05-05 21:43 52.66542 -51.35801 39773 ft 494 kts 248°
2026-05-05 21:44 52.63885 -51.46237 39771 ft 494 kts 248°
2026-05-05 21:44 52.61217 -51.56663 39776 ft 494 kts 248°
2026-05-05 21:45 52.58543 -51.67068 39770 ft 494 kts 248°
2026-05-05 21:45 52.55876 -51.77396 39769 ft 493 kts 248°
2026-05-05 21:46 52.53187 -51.87764 39766 ft 493 kts 248°
2026-05-05 21:46 52.50488 -51.98122 39763 ft 493 kts 248°
2026-05-05 21:47 52.47781 -52.08465 39757 ft 493 kts 248°
2026-05-05 21:47 52.45066 -52.18787 39864 ft 491 kts 248°
2026-05-05 21:48 52.43717 -52.23900 40068 ft 487 kts 247°
2026-05-05 21:48 52.42393 -52.28905 40286 ft 483 kts 247°
2026-05-05 21:48 52.41059 -52.33936 40519 ft 480 kts 247°
2026-05-05 21:48 52.39728 -52.38946 40721 ft 478 kts 247°
2026-05-05 21:49 52.37060 -52.48961 40772 ft 481 kts 247°
2026-05-05 21:49 52.34367 -52.59023 40778 ft 485 kts 247°
2026-05-05 21:50 52.31647 -52.69142 40785 ft 487 kts 247°
2026-05-05 21:50 52.28910 -52.79277 40786 ft 488 kts 247°
2026-05-05 21:51 52.26159 -52.89420 40787 ft 488 kts 247°
2026-05-05 21:51 52.23397 -52.99561 40779 ft 489 kts 247°
2026-05-05 21:52 52.19250 -53.14697 40787 ft 489 kts 247°
2026-05-05 21:53 52.16465 -53.24812 40788 ft 489 kts 247°
2026-05-05 21:53 52.13667 -53.34928 40787 ft 490 kts 247°
2026-05-05 21:54 52.10862 -53.45026 40786 ft 490 kts 246°
2026-05-05 21:54 52.08048 -53.55109 40773 ft 490 kts 246°
2026-05-05 21:55 52.05228 -53.65172 40786 ft 489 kts 246°
2026-05-05 21:55 52.02405 -53.75204 40785 ft 488 kts 246°
2026-05-05 21:56 51.99572 -53.85227 40781 ft 488 kts 246°
2026-05-05 21:56 51.96745 -53.95188 40785 ft 488 kts 246°
2026-05-05 21:57 51.93896 -54.05185 40787 ft 487 kts 246°
2026-05-05 21:57 51.91052 -54.15119 40790 ft 485 kts 246°
2026-05-05 21:58 51.88207 -54.25019 40782 ft 485 kts 246°
2026-05-05 21:58 51.85371 -54.34844 40788 ft 485 kts 246°
2026-05-05 21:59 51.82508 -54.44721 40790 ft 485 kts 246°
2026-05-05 21:59 51.79840 -54.54688 40798 ft 482 kts 252°
2026-05-05 22:00 51.77799 -54.64989 40791 ft 481 kts 253°
2026-05-05 22:00 51.75868 -54.75330 40799 ft 480 kts 254°
2026-05-05 22:01 51.73958 -54.85591 40797 ft 480 kts 254°
2026-05-05 22:01 51.72014 -54.95914 40798 ft 481 kts 253°
2026-05-05 22:02 51.70047 -55.06258 40793 ft 481 kts 253°
2026-05-05 22:02 51.68074 -55.16568 40793 ft 481 kts 253°
2026-05-05 22:03 51.66090 -55.26874 40788 ft 481 kts 253°
2026-05-05 22:03 51.64100 -55.37163 40788 ft 481 kts 253°
2026-05-05 22:04 51.62111 -55.47393 40787 ft 481 kts 253°
2026-05-05 22:04 51.60099 -55.57681 40780 ft 481 kts 253°
2026-05-05 22:05 51.58081 -55.67950 40771 ft 482 kts 253°
2026-05-05 22:05 51.56051 -55.78223 40763 ft 483 kts 253°
2026-05-05 22:06 51.54004 -55.88530 40754 ft 484 kts 253°
2026-05-05 22:06 51.51946 -55.98834 40745 ft 485 kts 253°
2026-05-05 22:07 51.49878 -56.09134 40731 ft 485 kts 253°
2026-05-05 22:07 51.47807 -56.19393 40741 ft 482 kts 253°
2026-05-05 22:08 51.46085 -56.27884 40769 ft 481 kts 253°
2026-05-05 22:08 51.43671 -56.39728 40768 ft 481 kts 253°
2026-05-05 22:09 51.41583 -56.49912 40768 ft 481 kts 253°
2026-05-05 22:09 51.39826 -56.58445 40782 ft 481 kts 253°
2026-05-05 22:10 51.37742 -56.68518 40773 ft 478 kts 252°
2026-05-05 22:10 51.35650 -56.78574 40777 ft 475 kts 252°
2026-05-05 22:11 51.33552 -56.88611 40787 ft 475 kts 252°
2026-05-05 22:11 51.31449 -56.98624 40786 ft 475 kts 252°
2026-05-05 22:12 51.29527 -57.07733 40778 ft 475 kts 252°
2026-05-05 22:12 51.27448 -57.17538 40779 ft 475 kts 252°
2026-05-05 22:13 51.25334 -57.27462 40786 ft 475 kts 252°
2026-05-05 22:13 51.23197 -57.37438 40788 ft 476 kts 252°
2026-05-05 22:14 51.21042 -57.47456 40791 ft 477 kts 252°
2026-05-05 22:14 51.18875 -57.57477 40801 ft 478 kts 252°
2026-05-05 22:15 51.16699 -57.67493 40792 ft 477 kts 252°
2026-05-05 22:15 51.14535 -57.77403 40803 ft 476 kts 251°
2026-05-05 22:16 51.12356 -57.87334 40808 ft 475 kts 251°
2026-05-05 22:16 51.10167 -57.97263 40803 ft 475 kts 251°
2026-05-05 22:17 51.07973 -58.07170 40807 ft 475 kts 251°
2026-05-05 22:17 51.05765 -58.17093 40799 ft 476 kts 251°
2026-05-05 22:18 51.03542 -58.27032 40801 ft 478 kts 251°
2026-05-05 22:18 51.01322 -58.36914 40802 ft 478 kts 251°
2026-05-05 22:19 50.99167 -58.46460 40792 ft 479 kts 251°
2026-05-05 22:19 50.96913 -58.56399 40791 ft 478 kts 251°
2026-05-05 22:20 50.94650 -58.66330 40795 ft 478 kts 251°
2026-05-05 22:20 50.92383 -58.76232 40783 ft 477 kts 251°
2026-05-05 22:21 50.90127 -58.86040 40785 ft 475 kts 251°
2026-05-05 22:21 50.87857 -58.95865 40784 ft 474 kts 251°
2026-05-05 22:22 50.85803 -59.04720 40779 ft 473 kts 251°
2026-05-05 22:22 50.83527 -59.14485 40779 ft 472 kts 250°
2026-05-05 22:23 50.81247 -59.24226 40772 ft 471 kts 250°
2026-05-05 22:23 50.78973 -59.33894 40779 ft 468 kts 250°
2026-05-05 22:24 50.76711 -59.43465 40771 ft 467 kts 250°
2026-05-05 22:24 50.74433 -59.53070 40768 ft 467 kts 250°
2026-05-05 22:25 50.72144 -59.62673 40772 ft 467 kts 250°
2026-05-05 22:25 50.69847 -59.72269 40756 ft 466 kts 250°
2026-05-05 22:26 50.67555 -59.81804 40763 ft 464 kts 250°
2026-05-05 22:26 50.65260 -59.91305 40765 ft 464 kts 249°
2026-05-05 22:27 50.62956 -60.00804 40764 ft 464 kts 249°
2026-05-05 22:27 50.60645 -60.10292 40763 ft 464 kts 249°
2026-05-05 22:28 50.58327 -60.19764 40766 ft 464 kts 249°
2026-05-05 22:28 50.56006 -60.29214 40753 ft 462 kts 249°
2026-05-05 22:29 50.53699 -60.38562 40757 ft 461 kts 249°
2026-05-05 22:29 50.51374 -60.47948 40757 ft 461 kts 249°
2026-05-05 22:30 50.49040 -60.57327 40747 ft 461 kts 249°
2026-05-05 22:30 50.46697 -60.66704 40749 ft 461 kts 249°
2026-05-05 22:31 50.44348 -60.76066 40749 ft 461 kts 249°
2026-05-05 22:31 50.42006 -60.85361 40750 ft 461 kts 249°
2026-05-05 22:32 50.39644 -60.94693 40741 ft 461 kts 249°
2026-05-05 22:32 50.37272 -61.04030 40741 ft 461 kts 248°
2026-05-05 22:33 50.34889 -61.13369 40746 ft 461 kts 248°
2026-05-05 22:33 50.32502 -61.22691 40725 ft 461 kts 248°
2026-05-05 22:34 50.30108 -61.31997 40714 ft 461 kts 248°
2026-05-05 22:34 50.27707 -61.41285 40707 ft 461 kts 248°
2026-05-05 22:35 50.25317 -61.50499 40690 ft 461 kts 248°
2026-05-05 22:35 50.22903 -61.59769 40685 ft 461 kts 248°
2026-05-05 22:36 50.20479 -61.69038 40685 ft 461 kts 248°
2026-05-05 22:36 50.18052 -61.78285 40683 ft 460 kts 248°
2026-05-05 22:37 50.15617 -61.87520 40683 ft 459 kts 248°
2026-05-05 22:37 50.13198 -61.96663 40683 ft 459 kts 247°
2026-05-05 22:38 50.10759 -62.05842 40675 ft 458 kts 247°
2026-05-05 22:38 50.08313 -62.15007 40667 ft 458 kts 247°
2026-05-05 22:39 50.05857 -62.24178 40667 ft 458 kts 247°
2026-05-05 22:39 50.03395 -62.33332 40658 ft 458 kts 247°
2026-05-05 22:40 50.00927 -62.42475 40657 ft 458 kts 247°
2026-05-05 22:40 49.98495 -62.51448 40653 ft 458 kts 247°
2026-05-05 22:41 49.96025 -62.60527 40664 ft 458 kts 247°
2026-05-05 22:41 49.93537 -62.69639 40640 ft 459 kts 246°
2026-05-05 22:42 49.91036 -62.78758 40642 ft 459 kts 246°
2026-05-05 22:42 49.88526 -62.87876 40642 ft 459 kts 246°
2026-05-05 22:43 49.86010 -62.96979 40634 ft 459 kts 246°
2026-05-05 22:43 49.83483 -63.06088 40636 ft 460 kts 246°
2026-05-05 22:44 49.80968 -63.15120 40631 ft 459 kts 246°
2026-05-05 22:44 49.78562 -63.23728 40634 ft 459 kts 246°
2026-05-05 22:45 49.76019 -63.32795 40654 ft 459 kts 246°
2026-05-05 22:45 49.73460 -63.41878 40642 ft 462 kts 246°
2026-05-05 22:46 49.70885 -63.50985 40627 ft 462 kts 245°
2026-05-05 22:46 49.68301 -63.60088 40619 ft 462 kts 245°
2026-05-05 22:47 49.65712 -63.69178 40630 ft 462 kts 245°
2026-05-05 22:47 49.63129 -63.78208 40620 ft 462 kts 245°
2026-05-05 22:48 49.60826 -63.86234 40619 ft 462 kts 245°
2026-05-05 22:48 49.58214 -63.95300 40620 ft 462 kts 245°
2026-05-05 22:49 49.55596 -64.04357 40609 ft 463 kts 245°
2026-05-05 22:49 49.52959 -64.13443 40597 ft 464 kts 245°
2026-05-05 22:50 49.50323 -64.22490 40588 ft 463 kts 245°
2026-05-05 22:50 49.47699 -64.31467 40565 ft 463 kts 245°
2026-05-05 22:51 49.45045 -64.40510 40559 ft 463 kts 245°
2026-05-05 22:51 49.42386 -64.49536 40559 ft 463 kts 245°
2026-05-05 22:52 49.39727 -64.58528 40547 ft 461 kts 245°
2026-05-05 22:52 49.37073 -64.67469 40547 ft 459 kts 245°
2026-05-05 22:53 49.34417 -64.76385 40544 ft 459 kts 245°
2026-05-05 22:53 49.31760 -64.85272 40542 ft 458 kts 245°
2026-05-05 22:54 49.29099 -64.94141 40542 ft 458 kts 245°
2026-05-05 22:54 49.26448 -65.02946 40536 ft 457 kts 245°
2026-05-05 22:55 49.23783 -65.11763 40541 ft 456 kts 245°
2026-05-05 22:55 49.21112 -65.20568 40538 ft 456 kts 245°
2026-05-05 22:56 49.18434 -65.29366 40546 ft 456 kts 245°
2026-05-05 22:56 49.15751 -65.38147 40545 ft 456 kts 245°
2026-05-05 22:57 49.13058 -65.46931 40547 ft 458 kts 245°
2026-05-05 22:57 49.10342 -65.55759 40553 ft 459 kts 244°
2026-05-05 22:58 49.07619 -65.64578 40564 ft 459 kts 244°
2026-05-05 22:58 49.04904 -65.73338 40564 ft 459 kts 244°
2026-05-05 22:59 49.02167 -65.82140 40575 ft 459 kts 244°
2026-05-05 22:59 48.99868 -65.89510 40563 ft 459 kts 244°
2026-05-05 23:00 48.95770 -66.02594 40594 ft 458 kts 244°
2026-05-05 23:00 48.93017 -66.11344 40597 ft 458 kts 244°
2026-05-05 23:01 48.90258 -66.20093 40603 ft 459 kts 244°
2026-05-05 23:01 48.87490 -66.28829 40605 ft 459 kts 244°
2026-05-05 23:02 48.84714 -66.37552 40598 ft 458 kts 244°
2026-05-05 23:02 48.81957 -66.46188 40603 ft 456 kts 244°
2026-05-05 23:03 48.79182 -66.54856 40584 ft 456 kts 244°
2026-05-05 23:03 48.76873 -66.62045 40584 ft 456 kts 244°
2026-05-05 23:04 48.74311 -66.69996 40582 ft 456 kts 244°
2026-05-05 23:05 48.71525 -66.78617 40582 ft 455 kts 244°
2026-05-05 23:05 48.68736 -66.87217 40581 ft 455 kts 244°
2026-05-05 23:06 48.65939 -66.95815 40580 ft 455 kts 244°
2026-05-05 23:06 48.63153 -67.04346 40575 ft 455 kts 244°
2026-05-05 23:07 48.60346 -67.12916 40573 ft 455 kts 244°
2026-05-05 23:07 48.57534 -67.21469 40571 ft 454 kts 244°
2026-05-05 23:08 48.54720 -67.30000 40566 ft 453 kts 244°
2026-05-05 23:08 48.51925 -67.38447 40567 ft 453 kts 244°
2026-05-05 23:09 48.49103 -67.46945 40567 ft 453 kts 244°
2026-05-05 23:09 48.46279 -67.55424 40570 ft 453 kts 243°
2026-05-05 23:10 48.43444 -67.63906 40553 ft 452 kts 244°
2026-05-05 23:10 48.40683 -67.72139 40572 ft 451 kts 243°
2026-05-05 23:11 48.37851 -67.80555 40575 ft 451 kts 243°
2026-05-05 23:11 48.35028 -67.88919 40576 ft 451 kts 243°
2026-05-05 23:12 48.32182 -67.97323 40586 ft 450 kts 243°
2026-05-05 23:12 48.29334 -68.05708 40589 ft 450 kts 243°
2026-05-05 23:13 48.26489 -68.14055 40597 ft 448 kts 243°
2026-05-05 23:13 48.23663 -68.22319 40597 ft 448 kts 243°
2026-05-05 23:14 48.20810 -68.30637 40604 ft 448 kts 243°
2026-05-05 23:14 48.17951 -68.38944 40605 ft 448 kts 243°
2026-05-05 23:15 48.15092 -68.47227 40611 ft 448 kts 243°
2026-05-05 23:15 48.12222 -68.55513 40596 ft 448 kts 243°
2026-05-05 23:16 48.09350 -68.63778 40601 ft 448 kts 243°
2026-05-05 23:16 48.06470 -68.72041 40599 ft 447 kts 243°
2026-05-05 23:17 48.03613 -68.80211 40597 ft 446 kts 242°
2026-05-05 23:17 48.00728 -68.88436 40597 ft 446 kts 242°
2026-05-05 23:18 47.97844 -68.96632 40603 ft 445 kts 242°
2026-05-05 23:18 47.94958 -69.04808 40595 ft 445 kts 242°
2026-05-05 23:19 47.92066 -69.12977 40599 ft 445 kts 242°
2026-05-05 23:19 47.89184 -69.21090 40600 ft 445 kts 242°
2026-05-05 23:20 47.86285 -69.29227 40625 ft 445 kts 242°
2026-05-05 23:20 47.83381 -69.37353 40595 ft 444 kts 242°
2026-05-05 23:21 47.80468 -69.45480 40596 ft 444 kts 242°
2026-05-05 23:21 47.77557 -69.53575 40587 ft 444 kts 242°
2026-05-05 23:22 47.74431 -69.61237 40590 ft 444 kts 236°
2026-05-05 23:22 47.70815 -69.68668 40585 ft 444 kts 234°
2026-05-05 23:23 47.67123 -69.76021 40588 ft 444 kts 234°
2026-05-05 23:23 47.63447 -69.83319 40589 ft 444 kts 234°
2026-05-05 23:24 47.59751 -69.90663 40589 ft 444 kts 234°
2026-05-05 23:24 47.56054 -69.98005 40599 ft 445 kts 234°
2026-05-05 23:25 47.52344 -70.05358 40591 ft 446 kts 234°
2026-05-05 23:25 47.48619 -70.12718 40592 ft 446 kts 234°
2026-05-05 23:26 47.44894 -70.20057 40591 ft 446 kts 234°
2026-05-05 23:26 47.41189 -70.27339 40598 ft 446 kts 234°
2026-05-05 23:27 47.37454 -70.34659 40583 ft 446 kts 234°
2026-05-05 23:27 47.33714 -70.41969 40600 ft 446 kts 234°
2026-05-05 23:28 47.29962 -70.49282 40600 ft 447 kts 234°
2026-05-05 23:28 47.26211 -70.56576 40600 ft 447 kts 234°
2026-05-05 23:29 47.22455 -70.63859 40598 ft 447 kts 233°
2026-05-05 23:29 47.18680 -70.71156 40616 ft 449 kts 234°
2026-05-05 23:30 47.14895 -70.78459 40605 ft 449 kts 234°
2026-05-05 23:30 47.11124 -70.85714 40597 ft 449 kts 234°
2026-05-05 23:31 47.07325 -70.93003 40621 ft 449 kts 234°
2026-05-05 23:31 47.03520 -71.00284 40611 ft 450 kts 234°
2026-05-05 23:32 46.99705 -71.07566 40619 ft 450 kts 234°
2026-05-05 23:32 46.95906 -71.14798 40620 ft 450 kts 234°
2026-05-05 23:33 46.92086 -71.22050 40646 ft 450 kts 234°
2026-05-05 23:33 46.88257 -71.29300 40659 ft 450 kts 234°
2026-05-05 23:34 46.84428 -71.36530 40673 ft 449 kts 234°
2026-05-05 23:34 46.80608 -71.43726 40666 ft 447 kts 234°
2026-05-05 23:35 46.76792 -71.50897 40666 ft 447 kts 234°
2026-05-05 23:35 46.72895 -71.57964 40665 ft 448 kts 230°
2026-05-05 23:36 46.68085 -71.63729 40652 ft 456 kts 215°
2026-05-05 23:36 46.62279 -71.67663 40650 ft 462 kts 207°
2026-05-05 23:37 46.56322 -71.71221 40650 ft 463 kts 207°
2026-05-05 23:37 46.50368 -71.74787 40644 ft 462 kts 207°
2026-05-05 23:38 46.44418 -71.78352 40650 ft 462 kts 207°
2026-05-05 23:38 46.38475 -71.81907 40655 ft 462 kts 207°
2026-05-05 23:39 46.32561 -71.85438 40662 ft 462 kts 207°
2026-05-05 23:39 46.26617 -71.88978 40669 ft 462 kts 207°
2026-05-05 23:40 46.20662 -71.92517 40670 ft 462 kts 207°
2026-05-05 23:40 46.14720 -71.96040 40649 ft 462 kts 207°
2026-05-05 23:41 46.08778 -71.99555 40677 ft 462 kts 207°
2026-05-05 23:41 46.02831 -72.03065 40683 ft 462 kts 207°
2026-05-05 23:42 45.96887 -72.06564 40683 ft 462 kts 207°
2026-05-05 23:42 45.90941 -72.10057 40686 ft 461 kts 207°
2026-05-05 23:43 45.85000 -72.13538 40690 ft 461 kts 207°
2026-05-05 23:43 45.79051 -72.17016 40699 ft 461 kts 207°
2026-05-05 23:44 45.73410 -72.20307 40695 ft 461 kts 207°
2026-05-05 23:44 45.67479 -72.23759 40705 ft 460 kts 207°
2026-05-05 23:45 45.61567 -72.27192 40713 ft 460 kts 207°
2026-05-05 23:45 45.55625 -72.30634 40701 ft 460 kts 207°
2026-05-05 23:46 45.49691 -72.34065 40713 ft 460 kts 207°
2026-05-05 23:46 45.43750 -72.37491 40716 ft 460 kts 207°
2026-05-05 23:47 45.37852 -72.40885 40717 ft 460 kts 207°
2026-05-05 23:47 45.31910 -72.44297 40726 ft 460 kts 207°
2026-05-05 23:48 45.26974 -72.47125 40730 ft 460 kts 207°
2026-05-05 23:48 45.21046 -72.50514 40723 ft 460 kts 207°
2026-05-05 23:49 45.15106 -72.53903 40735 ft 460 kts 207°
2026-05-05 23:49 45.09169 -72.57282 40744 ft 460 kts 207°
2026-05-05 23:50 45.03221 -72.60660 40745 ft 460 kts 207°
2026-05-05 23:50 44.97311 -72.64009 40757 ft 461 kts 208°
2026-05-05 23:51 44.91346 -72.67381 40756 ft 462 kts 207°
2026-05-05 23:51 44.85385 -72.70744 40754 ft 462 kts 207°
2026-05-05 23:52 44.79402 -72.74112 40772 ft 463 kts 208°
2026-05-05 23:52 44.73425 -72.77467 40776 ft 463 kts 207°
2026-05-05 23:53 44.67426 -72.80828 40759 ft 463 kts 208°
2026-05-05 23:53 44.61441 -72.84176 40772 ft 463 kts 208°
2026-05-05 23:54 44.55491 -72.87494 40773 ft 463 kts 208°
2026-05-05 23:54 44.49503 -72.90828 40767 ft 463 kts 207°
2026-05-05 23:55 44.43508 -72.94150 40774 ft 464 kts 208°
2026-05-05 23:55 44.37498 -72.97485 40776 ft 464 kts 208°
2026-05-05 23:56 44.31489 -73.00810 40769 ft 464 kts 208°
2026-05-05 23:56 44.27472 -73.03026 40776 ft 464 kts 208°
2026-05-05 23:57 44.26099 -73.03783 40778 ft 464 kts 208°
2026-05-05 23:57 44.20088 -73.07093 40768 ft 464 kts 208°
2026-05-05 23:58 44.14079 -73.10396 40768 ft 464 kts 208°
2026-05-05 23:58 44.08065 -73.13692 40769 ft 464 kts 208°
2026-05-05 23:59 44.02095 -73.16957 40770 ft 464 kts 208°
2026-05-05 23:59 43.96086 -73.20237 40765 ft 464 kts 208°
2026-05-06 00:00 43.90058 -73.23520 40768 ft 465 kts 208°
2026-05-06 00:00 43.84083 -73.26762 40553 ft 455 kts 208°
2026-05-06 00:01 43.81144 -73.28355 40304 ft 452 kts 208°
2026-05-06 00:01 43.78224 -73.29939 40065 ft 451 kts 208°
2026-05-06 00:01 43.75294 -73.31527 39817 ft 451 kts 208°
2026-05-06 00:01 43.72363 -73.33115 39570 ft 453 kts 209°
2026-05-06 00:02 43.69428 -73.34701 39336 ft 453 kts 209°
2026-05-06 00:02 43.66490 -73.36287 39105 ft 453 kts 209°
2026-05-06 00:02 43.63553 -73.37871 38863 ft 453 kts 209°
2026-05-06 00:02 43.60618 -73.39451 38633 ft 453 kts 209°
2026-05-06 00:03 43.57683 -73.41029 38415 ft 452 kts 209°
2026-05-06 00:03 43.54758 -73.42602 38147 ft 452 kts 209°
2026-05-06 00:03 43.51834 -73.44173 37860 ft 452 kts 210°
2026-05-06 00:03 43.48909 -73.45741 37579 ft 451 kts 210°
2026-05-06 00:04 43.45979 -73.47311 37302 ft 452 kts 210°
2026-05-06 00:04 43.43052 -73.48878 37037 ft 452 kts 210°
2026-05-06 00:04 43.40114 -73.50449 36749 ft 453 kts 210°
2026-05-06 00:04 43.37198 -73.52009 36487 ft 457 kts 210°
2026-05-06 00:05 43.31211 -73.55209 36042 ft 469 kts 210°
2026-05-06 00:05 43.28149 -73.56841 36025 ft 471 kts 210°
2026-05-06 00:05 43.25090 -73.58464 35910 ft 472 kts 210°
2026-05-06 00:06 43.22019 -73.60094 35643 ft 474 kts 209°
2026-05-06 00:06 43.18924 -73.61735 35386 ft 479 kts 209°
2026-05-06 00:06 43.15734 -73.63183 35161 ft 485 kts 205°
2026-05-06 00:06 43.12498 -73.64499 34930 ft 485 kts 204°
2026-05-06 00:07 43.09263 -73.65820 34734 ft 483 kts 205°
2026-05-06 00:07 43.02874 -73.68474 34581 ft 474 kts 205°
2026-05-06 00:07 42.99743 -73.69784 34336 ft 467 kts 205°
2026-05-06 00:08 42.96677 -73.71075 34094 ft 465 kts 205°
2026-05-06 00:08 42.93593 -73.72376 33854 ft 464 kts 205°
2026-05-06 00:08 42.90505 -73.73679 33588 ft 464 kts 205°
2026-05-06 00:08 42.87424 -73.74979 33339 ft 464 kts 205°
2026-05-06 00:09 42.84331 -73.76283 33033 ft 466 kts 204°
2026-05-06 00:09 42.81223 -73.77592 32759 ft 468 kts 204°
2026-05-06 00:09 42.78108 -73.78900 32499 ft 469 kts 204°
2026-05-06 00:09 42.74988 -73.80210 32235 ft 470 kts 204°
2026-05-06 00:10 42.71875 -73.81554 31970 ft 469 kts 205°
2026-05-06 00:10 42.68775 -73.82956 31703 ft 468 kts 205°
2026-05-06 00:10 42.65691 -73.84354 31442 ft 467 kts 205°
2026-05-06 00:10 42.62607 -73.85746 31192 ft 466 kts 204°
2026-05-06 00:11 42.59540 -73.87124 30933 ft 464 kts 204°
2026-05-06 00:11 42.56478 -73.88498 30683 ft 462 kts 204°
2026-05-06 00:11 42.53469 -73.89844 30439 ft 460 kts 204°
2026-05-06 00:11 42.50430 -73.91201 30188 ft 459 kts 204°
2026-05-06 00:12 42.47402 -73.92553 29921 ft 458 kts 203°
2026-05-06 00:12 42.44376 -73.93902 29654 ft 457 kts 203°
2026-05-06 00:12 42.41351 -73.95249 29374 ft 455 kts 203°
2026-05-06 00:12 42.38349 -73.96584 29088 ft 453 kts 203°
2026-05-06 00:13 42.35362 -73.97911 28810 ft 451 kts 202°
2026-05-06 00:13 42.32390 -73.99230 28538 ft 449 kts 202°
2026-05-06 00:13 42.29432 -74.00541 28243 ft 446 kts 203°
2026-05-06 00:13 42.26497 -74.01847 27981 ft 443 kts 202°
2026-05-06 00:14 42.23573 -74.03141 27723 ft 440 kts 202°
2026-05-06 00:14 42.20662 -74.04432 27453 ft 438 kts 202°
2026-05-06 00:14 42.17772 -74.05707 27187 ft 436 kts 202°
2026-05-06 00:14 42.14899 -74.06973 26930 ft 434 kts 202°
2026-05-06 00:15 42.12037 -74.08235 26682 ft 431 kts 202°
2026-05-06 00:15 42.09190 -74.09489 26408 ft 430 kts 202°
2026-05-06 00:15 42.06364 -74.10733 26079 ft 424 kts 202°
2026-05-06 00:15 42.03580 -74.11961 25575 ft 418 kts 202°
2026-05-06 00:16 42.00828 -74.13167 25017 ft 414 kts 201°
2026-05-06 00:16 41.98388 -74.14234 24517 ft 410 kts 201°
2026-05-06 00:16 41.95701 -74.15409 23962 ft 406 kts 201°
2026-05-06 00:16 41.93028 -74.16578 23401 ft 402 kts 201°
2026-05-06 00:17 41.90383 -74.17734 22761 ft 398 kts 201°
2026-05-06 00:17 41.87804 -74.18859 22215 ft 392 kts 201°
2026-05-06 00:17 41.85227 -74.19985 21657 ft 387 kts 201°
2026-05-06 00:17 41.82683 -74.21099 21106 ft 383 kts 201°
2026-05-06 00:18 41.80160 -74.22198 20555 ft 378 kts 201°
2026-05-06 00:18 41.77668 -74.23283 20003 ft 375 kts 202°
2026-05-06 00:18 41.75201 -74.24357 19442 ft 371 kts 202°
2026-05-06 00:18 41.72757 -74.25420 18869 ft 368 kts 202°
2026-05-06 00:19 41.70329 -74.26476 18341 ft 365 kts 202°
2026-05-06 00:19 41.67897 -74.27467 17755 ft 366 kts 198°
2026-05-06 00:19 41.65349 -74.27813 17164 ft 371 kts 185°
2026-05-06 00:19 41.62766 -74.27627 16573 ft 373 kts 180°
2026-05-06 00:20 41.60191 -74.27191 16084 ft 371 kts 177°
2026-05-06 00:20 41.57651 -74.26653 15605 ft 368 kts 176°
2026-05-06 00:20 41.55127 -74.26099 15047 ft 367 kts 177°
2026-05-06 00:20 41.52611 -74.25567 14541 ft 364 kts 178°
2026-05-06 00:21 41.50129 -74.25059 13854 ft 368 kts 178°
2026-05-06 00:21 41.47538 -74.24534 12922 ft 374 kts 177°
2026-05-06 00:21 41.45014 -74.23981 12345 ft 371 kts 175°
2026-05-06 00:21 41.42501 -74.23327 11770 ft 365 kts 175°
2026-05-06 00:22 41.40034 -74.22663 11332 ft 357 kts 175°
2026-05-06 00:22 41.37649 -74.22011 11092 ft 343 kts 174°
2026-05-06 00:22 41.35363 -74.21380 10894 ft 329 kts 175°
2026-05-06 00:22 41.33168 -74.20764 10689 ft 317 kts 175°
2026-05-06 00:23 41.31039 -74.20155 10347 ft 309 kts 175°
2026-05-06 00:23 41.28957 -74.19569 9968 ft 302 kts 175°
2026-05-06 00:23 41.26916 -74.19010 9608 ft 297 kts 174°
2026-05-06 00:23 41.24913 -74.18455 9209 ft 291 kts 175°
2026-05-06 00:24 41.22952 -74.17903 8824 ft 285 kts 175°
2026-05-06 00:24 41.21030 -74.17359 8448 ft 280 kts 175°
2026-05-06 00:24 41.19134 -74.16818 8103 ft 277 kts 175°
2026-05-06 00:24 41.17264 -74.16285 7765 ft 274 kts 175°
2026-05-06 00:25 41.15406 -74.15753 7418 ft 272 kts 174°
2026-05-06 00:25 41.13564 -74.15232 7102 ft 270 kts 175°
2026-05-06 00:25 41.11733 -74.14719 6799 ft 268 kts 175°
2026-05-06 00:25 41.09911 -74.14206 6482 ft 267 kts 175°
2026-05-06 00:26 41.08100 -74.13679 6161 ft 266 kts 175°
2026-05-06 00:26 41.06321 -74.13163 5836 ft 264 kts 175°
2026-05-06 00:26 41.04508 -74.12632 5515 ft 262 kts 175°
2026-05-06 00:26 41.02758 -74.12114 5193 ft 260 kts 175°
2026-05-06 00:27 41.00997 -74.11600 4844 ft 258 kts 175°
2026-05-06 00:27 40.99240 -74.11100 4362 ft 257 kts 175°
2026-05-06 00:27 40.97510 -74.10607 3951 ft 247 kts 175°
2026-05-06 00:27 40.95865 -74.10128 3461 ft 236 kts 174°
2026-05-06 00:28 40.94276 -74.09684 3093 ft 230 kts 175°
2026-05-06 00:28 40.92758 -74.09265 2988 ft 214 kts 175°
2026-05-06 00:28 40.91364 -74.08862 2979 ft 196 kts 175°
2026-05-06 00:28 40.90099 -74.08462 2990 ft 177 kts 175°
2026-05-06 00:29 40.88950 -74.08064 2999 ft 168 kts 175°
2026-05-06 00:29 40.87820 -74.07773 2992 ft 162 kts 184°
2026-05-06 00:29 40.86731 -74.07877 2986 ft 158 kts 195°
2026-05-06 00:29 40.85660 -74.08155 2995 ft 156 kts 198°
2026-05-06 00:30 40.84629 -74.08462 2977 ft 145 kts 199°
2026-05-06 00:30 40.83647 -74.08703 2960 ft 147 kts 190°
2026-05-06 00:30 40.82612 -74.08491 2692 ft 150 kts 181°
2026-05-06 00:30 40.81623 -74.08611 2518 ft 137 kts 202°
2026-05-06 00:31 40.80811 -74.09126 2336 ft 123 kts 210°
2026-05-06 00:31 40.80057 -74.09589 2173 ft 118 kts 207°
2026-05-06 00:31 40.79314 -74.10058 2023 ft 118 kts 207°
2026-05-06 00:31 40.78598 -74.10515 1866 ft 111 kts 207°
2026-05-06 00:32 40.77915 -74.10948 1737 ft 108 kts 208°
2026-05-06 00:32 40.77234 -74.11384 1592 ft 110 kts 208°
2026-05-06 00:32 40.76553 -74.11817 1427 ft 109 kts 208°
2026-05-06 00:32 40.75862 -74.12259 1304 ft 111 kts 206°
2026-05-06 00:33 40.75151 -74.12715 1150 ft 115 kts 205°
2026-05-06 00:33 40.74429 -74.13175 1004 ft 115 kts 206°
2026-05-06 00:33 40.73705 -74.13639 876 ft 116 kts 205°
2026-05-06 00:33 40.72977 -74.14102 726 ft 114 kts 202°
2026-05-06 00:34 40.72273 -74.14552 585 ft 111 kts 208°
2026-05-06 00:34 40.71582 -74.14994 426 ft 113 kts 207°
2026-05-06 00:34 40.70863 -74.15458 266 ft 117 kts 206°
2026-05-06 00:34 40.70135 -74.15911 105 ft 114 kts 205°
2026-05-06 00:35 40.69444 -74.16353 30 ft 103 kts 206°
2026-05-06 00:35 40.68917 -74.16688 28 ft 66 kts 205°
2026-05-06 00:35 40.68694 -74.16829 28 ft 41 kts 206°
2026-05-06 00:35 40.68520 -74.16941 28 ft 13 kts 206°
2026-05-06 00:36 40.68438 -74.16994 28 ft 13 kts 211°
2026-05-06 00:36 40.68358 -74.17061 29 ft 15 kts 214°
2026-05-06 00:36 40.68300 -74.17129 28 ft 18 kts 224°
2026-05-06 00:36 40.68212 -74.17274 28 ft 21 kts 233°
2026-05-06 00:37 40.68151 -74.17410 27 ft 11 kts 256°
2026-05-06 00:37 40.68172 -74.17515 27 ft 13 kts 294°
2026-05-06 00:37 40.68220 -74.17632 28 ft 15 kts 315°
2026-05-06 00:37 40.68315 -74.17612 28 ft 16 kts 25°
2026-05-06 00:38 40.68422 -74.17543 29 ft 19 kts 25°
2026-05-06 00:38 40.68549 -74.17463 29 ft 22 kts 26°
2026-05-06 00:38 40.68696 -74.17370 29 ft 25 kts 26°
2026-05-06 00:38 40.68863 -74.17263 29 ft 28 kts 26°
2026-05-06 00:39 40.68990 -74.17220 28 ft 14 kts 325°
2026-05-06 00:39 40.69030 -74.17270 28 ft 5 kts 356°
2026-05-06 00:39 40.69073 -74.17253 28 ft 8 kts 10°
2026-05-06 00:39 40.69100 -74.17278 28 ft 5 kts 289°
2026-05-06 00:40 40.69109 -74.17324 28 ft 4 kts 301°
2026-05-06 00:40 40.69129 -74.17352 28 ft 2 kts 321°
2026-05-06 00:40 40.69138 -74.17363 28 ft 1 kts 320°
2026-05-06 00:40 40.69141 -74.17365 28 ft 0 kts 320°